TimeCST,TemperatureF,Dew PointF,Humidity,Sea Level PressureIn,VisibilityMPH,Wind Direction,Wind SpeedMPH,Gust SpeedMPH,PrecipitationIn,Events,Conditions,WindDirDegrees,DateUTC
12:15 AM,14.0,10.4,86,30.05,4.0,WSW,6.9,-,N/A,Snow,Light Snow,250,2012-12-30 06:15:00
12:35 AM,14.0,10.4,86,30.06,4.0,WSW,6.9,-,N/A,Snow,Light Snow,250,2012-12-30 06:35:00
12:55 AM,14.0,10.4,86,30.06,5.0,WSW,8.1,-,N/A,Snow,Light Snow,250,2012-12-30 06:55:00
1:15 AM,14.0,10.4,86,30.06,5.0,West,6.9,-,N/A,Snow,Light Snow,260,2012-12-30 07:15:00
1:35 AM,14.0,10.4,86,30.06,5.0,WSW,6.9,-,N/A,Snow,Light Snow,250,2012-12-30 07:35:00
1:55 AM,14.0,10.4,86,30.07,4.0,West,5.8,-,N/A,Snow,Light Snow,260,2012-12-30 07:55:00
2:15 AM,12.2,10.4,92,30.07,4.0,West,5.8,-,N/A,Snow,Light Snow,280,2012-12-30 08:15:00
2:35 AM,12.2,10.4,92,30.07,5.0,WSW,5.8,-,N/A,Snow,Light Snow,250,2012-12-30 08:35:00
2:55 AM,12.2,10.4,92,30.08,7.0,WSW,5.8,-,N/A,Snow,Light Snow,250,2012-12-30 08:55:00
3:15 AM,12.2,8.6,85,30.09,5.0,WSW,6.9,-,N/A,Snow,Light Snow,250,2012-12-30 09:15:00
3:35 AM,12.2,8.6,85,30.09,5.0,West,9.2,-,N/A,Snow,Light Snow,260,2012-12-30 09:35:00
3:55 AM,12.2,8.6,85,30.10,7.0,West,10.4,-,N/A,Snow,Light Snow,270,2012-12-30 09:55:00
4:15 AM,12.2,8.6,85,30.10,7.0,West,10.4,-,N/A,Snow,Light Snow,260,2012-12-30 10:15:00
4:35 AM,12.2,8.6,85,30.10,7.0,West,6.9,-,N/A,Snow,Light Snow,260,2012-12-30 10:35:00
4:55 AM,12.2,8.6,85,30.10,5.0,West,6.9,-,N/A,Snow,Light Snow,260,2012-12-30 10:55:00
5:15 AM,10.4,8.6,92,30.10,5.0,WSW,5.8,-,N/A,Snow,Light Snow,240,2012-12-30 11:15:00
5:35 AM,10.4,8.6,92,30.10,5.0,WSW,5.8,-,N/A,Snow,Light Snow,250,2012-12-30 11:35:00
5:55 AM,10.4,6.8,85,30.11,7.0,West,9.2,-,N/A,Snow,Light Snow,270,2012-12-30 11:55:00
6:15 AM,10.4,6.8,85,30.11,7.0,WNW,4.6,-,N/A,Snow,Light Snow,290,2012-12-30 12:15:00
6:35 AM,10.4,6.8,85,30.10,7.0,WSW,4.6,-,N/A,Snow,Light Snow,250,2012-12-30 12:35:00
6:55 AM,8.6,6.8,92,30.10,5.0,WSW,3.5,-,N/A,Snow,Light Snow,240,2012-12-30 12:55:00
7:15 AM,8.6,6.8,92,30.11,5.0,SW,4.6,-,N/A,Snow,Light Snow,230,2012-12-30 13:15:00
7:35 AM,8.6,6.8,92,30.10,4.0,SW,4.6,-,N/A,Snow,Light Snow,230,2012-12-30 13:35:00
7:55 AM,8.6,6.8,92,30.11,2.5,SW,5.8,-,N/A,Snow,Light Snow,230,2012-12-30 13:55:00
8:15 AM,8.6,6.8,92,30.11,1.2,SW,5.8,-,N/A,Snow,Light Snow,220,2012-12-30 14:15:00
8:35 AM,6.8,3.2,85,30.11,1.0,SW,4.6,-,N/A,Snow,Light Snow,220,2012-12-30 14:35:00
8:55 AM,6.8,3.2,85,30.11,1.0,SSW,4.6,-,N/A,Snow,Light Snow,210,2012-12-30 14:55:00
9:15 AM,6.8,3.2,85,30.11,1.5,Calm,Calm,-,N/A,Snow,Light Snow,0,2012-12-30 15:15:00
9:35 AM,6.8,3.2,85,30.13,2.5,SSW,4.6,-,N/A,Snow,Light Snow,210,2012-12-30 15:35:00
9:55 AM,6.8,3.2,85,30.14,1.5,SSW,5.8,-,N/A,Snow,Light Snow,210,2012-12-30 15:55:00
10:15 AM,8.6,3.2,79,30.14,3.0,SSW,4.6,-,N/A,Snow,Light Snow,210,2012-12-30 16:15:00
10:35 AM,8.6,5.0,85,30.14,4.0,SSW,5.8,-,N/A,Snow,Light Snow,210,2012-12-30 16:35:00
10:55 AM,8.6,5.0,85,30.14,5.0,SSW,4.6,-,N/A,Snow,Light Snow,210,2012-12-30 16:55:00
11:15 AM,8.6,5.0,85,30.13,5.0,SSW,5.8,-,N/A,,Clear,210,2012-12-30 17:15:00
11:35 AM,8.6,5.0,85,30.12,7.0,SSW,4.6,-,N/A,,Clear,210,2012-12-30 17:35:00
11:55 AM,10.4,5.0,79,30.10,7.0,South,4.6,-,N/A,,Clear,190,2012-12-30 17:55:00
12:15 PM,10.4,5.0,79,30.09,7.0,South,3.5,-,N/A,,Clear,190,2012-12-30 18:15:00
12:35 PM,10.4,5.0,79,30.07,7.0,SSE,3.5,-,N/A,,Clear,160,2012-12-30 18:35:00
12:55 PM,10.4,5.0,79,30.06,10.0,SSE,4.6,-,N/A,,Clear,160,2012-12-30 18:55:00
1:15 PM,12.2,6.8,79,30.06,7.0,SSE,4.6,-,N/A,,Clear,160,2012-12-30 19:15:00
1:35 PM,12.2,6.8,79,30.05,10.0,SSE,4.6,-,N/A,,Clear,160,2012-12-30 19:35:00
1:55 PM,12.2,6.8,79,30.04,10.0,SSE,6.9,-,N/A,,Clear,160,2012-12-30 19:55:00
2:15 PM,14.0,6.8,73,30.02,10.0,South,6.9,-,N/A,,Clear,170,2012-12-30 20:15:00
2:35 PM,14.0,6.8,73,30.02,10.0,South,3.5,-,N/A,,Clear,170,2012-12-30 20:35:00
2:55 PM,14.0,8.6,79,30.02,10.0,South,5.8,-,N/A,,Clear,170,2012-12-30 20:55:00
3:15 PM,15.8,8.6,73,30.02,10.0,South,4.6,-,N/A,,Clear,170,2012-12-30 21:15:00
3:35 PM,15.8,8.6,73,30.00,10.0,SSE,3.5,-,N/A,,Clear,160,2012-12-30 21:35:00
3:55 PM,15.8,8.6,73,29.99,10.0,SE,4.6,-,N/A,,Clear,140,2012-12-30 21:55:00
4:15 PM,15.8,8.6,73,29.98,10.0,SE,5.8,-,N/A,,Clear,130,2012-12-30 22:15:00
4:35 PM,14.0,8.6,79,29.97,10.0,ESE,5.8,-,N/A,,Clear,120,2012-12-30 22:35:00
4:55 PM,14.0,8.6,79,29.96,10.0,ESE,5.8,-,N/A,,Clear,120,2012-12-30 22:55:00
5:15 PM,14.0,8.6,79,29.95,10.0,SE,5.8,-,N/A,,Clear,130,2012-12-30 23:15:00
5:35 PM,14.0,8.6,79,29.95,10.0,ESE,5.8,-,N/A,,Clear,120,2012-12-30 23:35:00
5:55 PM,14.0,8.6,79,29.94,10.0,SE,5.8,-,N/A,,Clear,130,2012-12-30 23:55:00
6:15 PM,15.8,8.6,73,29.93,10.0,SE,6.9,-,N/A,,Clear,130,2012-12-31 00:15:00
6:35 PM,15.8,8.6,73,29.92,10.0,SE,8.1,-,N/A,,Clear,130,2012-12-31 00:35:00
6:55 PM,15.8,10.4,79,29.91,10.0,SE,8.1,-,N/A,,Clear,140,2012-12-31 00:55:00
7:15 PM,17.6,10.4,73,29.91,10.0,SSE,6.9,-,N/A,,Mostly Cloudy,160,2012-12-31 01:15:00
7:35 PM,17.6,12.2,79,29.91,10.0,SSE,6.9,-,N/A,,Overcast,160,2012-12-31 01:35:00
7:55 PM,17.6,12.2,79,29.90,10.0,SSE,6.9,-,N/A,,Overcast,160,2012-12-31 01:55:00
8:15 PM,17.6,12.2,79,29.90,10.0,South,5.8,-,N/A,,Scattered Clouds,170,2012-12-31 02:15:00
8:35 PM,17.6,12.2,79,29.88,10.0,SSE,5.8,-,N/A,,Mostly Cloudy,160,2012-12-31 02:35:00
8:55 PM,17.6,12.2,79,29.88,10.0,SSE,5.8,-,N/A,,Overcast,160,2012-12-31 02:55:00
9:15 PM,17.6,12.2,79,29.87,10.0,SSE,5.8,-,N/A,,Overcast,160,2012-12-31 03:15:00
9:35 PM,19.4,14.0,80,29.86,10.0,South,9.2,-,N/A,,Overcast,190,2012-12-31 03:35:00
9:55 PM,19.4,15.8,86,29.86,10.0,South,6.9,-,N/A,,Overcast,180,2012-12-31 03:55:00
10:15 PM,19.4,15.8,86,29.85,10.0,South,6.9,-,N/A,,Overcast,180,2012-12-31 04:15:00
10:35 PM,19.4,15.8,86,29.84,10.0,South,6.9,-,N/A,,Overcast,190,2012-12-31 04:35:00
10:55 PM,19.4,15.8,86,29.84,10.0,SSW,8.1,-,N/A,,Overcast,200,2012-12-31 04:55:00
11:15 PM,21.2,15.8,80,29.83,10.0,SSW,5.8,-,N/A,,Overcast,210,2012-12-31 05:15:00
11:35 PM,21.2,17.6,86,29.83,10.0,SW,6.9,-,N/A,,Overcast,220,2012-12-31 05:35:00
11:55 PM,21.2,17.6,86,29.83,10.0,SW,10.4,-,N/A,,Overcast,220,2012-12-31 05:55:00